STARLINK-3756, 52309

Orbit data source: Space-Track

STARLINK-3756, 52309 is a payload satellite owned by SpaceX/Seattle (US) in LEO that was launched on Thu, 21 Apr 2022 UTC via an FALCON 9 launch vehicle from the Air Force Eastern Test Range (AFETR). Payload-class satellites include a variety of spacecraft equipped with specific instruments for various scientific and technological missions. These include communications satellites like Starlink; space stations such as the ISS; scientific satellites like the Hubble; Earth observation satellites from companies like Planet Labs, Umbra, and HawkEye 360; GPS; miniature CubeSats for education and research; and military/defense satellites.

Loading next visibility...
Identifier
52309, 2022-041BA
Orbit
LEO
Country
Flag of USUS
Related business
Manufacturer
SpaceX/Seattle
Mission
Operational Commercial Communications
Bus & Motor
STARLINK, Unknown motor
Mass
297 kg wet, ~275 kg dry
Launch date (UTC)
2022-04-21 (4 years ago)
Launch vehicle
FALCON 9
Launch site
Air Force Eastern Test Range (AFETR)
Object type
Payload
Rocket body
Debris
Shape & HBR
Box + 1 Pan, 10.1 m
Radar Cross Section
11.087 m², Large (>1 m²)

Expand to show TLE details & history
Last TLE update: 17 hours ago

TLE from 17 hours ago
0 STARLINK-3756
1 52309U 22041BA  26175.25002315  .00115805  00000-0  50374-2 0  9998
2 52309  53.1613 330.2826 0000282 157.7333 193.1091 15.21357360  5759
Epoch: 2026-06-24T06:00Z
TLE epoch observation values (Epoch: 2026-06-24T06:00:02.000Z)
Latitude
-7.44163°
Longitude
-37.72007°
Altitude
504.097 km
Speed
7.613 km/s
True Right ascension
21h 38m 47s
True Declination
-7° 23' 45"
Sunlit
Object was in full shadow at epoch
Visualization orbit readout
Latitude
Unknown
Longitude
Unknown
Altitude
Unknown
Speed
Unknown
Apparent Right ascension
Unknown
Apparent Declination
Unknown
Sunlit
N/A
Visualization observer readout
Local Sidereal Time
10:34:57
Azimuth
Unknown
Elevation
Unknown
Doppler factor
Unknown
Orbital elements
Apogee altitude
502.195 km
Perigee altitude
501.807 km
Semi-major axis
6,880.138 km
Eccentricity
0.00003
Inclination
53.1613°
RAAN
330.2826°
Arg. of periapsis
157.7333°
True anomaly
193.10837°
Mean anomaly
193.1091°
Eccentric anomaly
193.10873°
Mean motion
3.80319 °/min
Orbital period
94.66 mins
BSTAR
0.0050374
Loading maneuver chart data...
Computing Atmospheric mass density...
Loading historical data...
Loading historical data...
Loading historical data...
Loading historical data...
Loading historical data...
Loading historical data...
Loading historical data...

Documentation

Showing up to 5 results
|